Location: Saint Louis
(38.6272°N, 90.1978°W)
Time: 13:03:19
(UTC-05:00)

ISS - Pass Details

Date: 03 June 2013
Orbit: 402 x 404 km, 51.6° (Epoch: 31 May)

Event Time Altitude Azimuth Distance (km) Brightness Sun altitude
Rises 21:06:47 0° 274° (W) 2,337 1.6 -8.3°
Reaches altitude 10° 21:09:27 10° 297° (WNW) 1,466 1.1 -8.7°
Maximum altitude 21:11:35 16° 338° (NNW) 1,146 -0.1 -9.0°
Drops below altitude 10° 21:13:44 10° 19° (NNE) 1,458 -0.2 -9.3°
Enters shadow 21:21:53 -14° 58° (ENE) 4,420 1.8 -10.5°
